Location: Central Coast NSW, Australia
(33.2407°S, 151.4316°E)
Time: 14:15:24
(UTC+11:00)

ISS - Pass Details

Date: 27 January 2019
Orbit: 403 x 411 km, 51.6° (Epoch: 20 February)

Event Time Altitude Azimuth Distance (km) Brightness Sun altitude
Exits shadow 04:19:48 11° 42° (NE) 1,398 -1.1 -20.6°
Maximum altitude 04:20:28 12° 54° (NE) 1,372 -1.0 -20.5°
Drops below altitude 10° 04:21:46 10° 77° (ENE) 1,482 -0.5 -20.3°
Sets 04:24:56 0° 110° (ESE) 2,352 1.3 -19.8°
